Dewpoint
45 45 45 45 45 45 45 44 44 43 43 43 43 43 43 43 44 43 42 45 43 39 40 44 42 38 37 36 32 35 38 40 37 33 32 32 27 33 31 32 33 32 30 25 25 21 23 30 27 24 27 34 34 34
43 43 43 43 43 43 44 43 43 43 43 43 43 43 43 44 44 43 40 47 47 41 41 43 43 43 42 39 38 39 36 39 39 37 34 31 29 29 31 29 33 31 33 31 31 31 33 34 30 34 34 34 35 36
42 43 43 43 43 43 43 43 43 43 43 43 43 43 44 44 44 42 41 42 44 40 40 40 39 45 46 44 45 39 41 44 43 43 38 36 31 33 29 30 32 33 35 32 32 35 37 39 38 38 38 38 39 39
41 42 42 42 43 42 42 42 42 41 41 42 42 42 43 43 43 43 42 43 43 39 33 37 47 45 48 47 46 46 44 47 45 43 37 35 32 38 32 34 34 35 36 35 34 37 38 38 36 37 36 37 36 35
42 42 42 42 42 42 42 42 42 41 41 42 42 42 43 43 43 42 43 44 44 38 35 36 42 45 47 50 49 49 48 45 41 37 34 35 38 37 34 34 32 36 35 34 32 38 36 36 36 37 36 35 35 34
42 42 42 42 42 42 42 42 42 43 43 43 42 44 43 44 44 42 38 44 47 44 36 33 42 42 46 51 51 49 49 45 43 38 34 38 41 39 33 31 36 37 38 39 35 39 37 37 36 36 35 34 34 33
43 42 42 42 42 42 43 43 43 43 43 43 43 43 43 43 43 40 37 41 46 45 38 31 33 40 49 50 48 48 45 44 43 39 34 37 38 39 27 30 34 39 38 38 37 36 35 35 34 34 34 33 33 31
43 43 42 42 42 42 42 43 41 42 43 43 43 43 44 44 43 38 42 44 46 43 41 30 33 38 47 43 42 46 42 41 42 39 35 34 37 31 33 35 37 36 36 36 36 36 36 34 33 32 32 31 30 29
43 43 43 43 42 42 43 42 43 45 45 45 45 44 44 42 38 38 46 45 45 40 34 32 33 32 42 41 40 41 42 35 40 35 37 37 33 33 34 35 36 36 36 34 34 34 33 32 31 31 31 30 29 28
43 43 43 44 44 44 44 45 45 45 45 43 41 39 34 38 45 47 45 41 40 39 41 34 37 34 42 36 35 35 35 35 34 36 39 32 33 34 35 36 37 35 34 34 32 31 31 31 31 30 29 29 29 28
44 44 44 44 44 44 44 44 44 45 43 40 38 36 41 46 43 40 34 35 35 33 36 36 37 36 41 36 34 33 33 34 32 34 35 33 34 35 36 36 36 35 35 35 34 33 33 32 30 28 28 29 29 29
44 44 44 43 43 43 44 44 43 42 41 42 43 45 45 43 37 33 32 32 33 31 34 35 37 38 37 41 35 34 33 32 31 36 33 31 33 36 36 36 36 36 35 34 34 33 32 31 29 29 28 28 27 25
43 43 43 43 43 43 43 44 44 44 45 44 42 36 38 33 31 26 27 30 31 33 34 35 34 35 36 38 33 32 29 30 34 32 31 31 35 36 36 36 36 37 35 34 33 33 32 31 31 30 28 26 24 23
43 43 44 44 43 43 44 44 44 44 43 36 33 28 30 29 29 29 31 32 32 32 33 34 33 33 33 33 31 31 32 32 28 27 23 32 34 35 34 34 33 32 32 31 31 31 30 29 27 26 25 22 21 20
44 44 43 43 44 44 44 44 45 43 38 32 32 27 28 31 32 32 32 33 33 34 33 33 33 34 32 31 30 30 29 26 24 19 30 33 33 33 33 32 31 31 31 30 29 27 26 26 23 20 19 19 20 20
43 42 42 46 46 46 45 43 41 39 33 32 30 29 30 30 29 31 31 32 34 33 33 33 31 31 30 30 27 27 24 23 27 30 32 32 32 31 31 31 32 31 30 29 28 27 25 23 21 19 19 18 19 18
42 39 42 45 44 43 43 40 36 31 30 29 28 29 30 30 28 30 30 30 34 33 32 31 29 27 31 27 25 28 24 28 30 31 32 32 31 31 30 30 29 29 28 27 26 24 22 22 20 18 16 16 16 16
37 39 43 44 42 41 39 38 32 30 28 30 27 28 27 27 26 27 29 31 32 32 31 26 29 23 21 21 22 27 29 30 31 31 31 31 31 31 31 29 29 28 27 27 26 25 24 23 20 18 18 16 16 15
37 38 41 43 40 36 32 32 33 27 28 29 28 28 28 26 27 28 29 30 31 30 28 24 18 16 17 23 22 26 29 30 28 28 29 31 31 30 30 29 29 27 26 26 25 24 23 21 19 19 19 19 18 16
37 37 38 38 37 31 29 30 33 29 28 29 28 24 23 22 23 24 24 25 24 24 19 17 16 18 19 21 24 28 30 31 28 25 24 25 27 26 26 25 24 23 22 21 21 21 19 17 15 15 16 16 15 13
33 33 33 33 30 31 30 30 31 31 31 28 29 27 25 23 18 17 17 20 17 19 16 18 18 20 23 23 24 24 24 24 23 25 23 20 23 23 22 22 22 20 18 18 16 16 16 15 15 14 13 11 11 11
30 32 26 27 25 25 25 28 30 32 29 29 28 28 25 19 18 18 18 14 15 16 19 19 19 20 19 19 20 22 23 22 22 20 20 20 18 17 17 18 17 15 15 15 14 13 13 13 13 12 11 10 11 9
29 27 23 22 17 16 16 26 20 25 18 21 23 20 20 19 22 20 14 14 15 18 20 19 21 20 19 19 19 20 21 19 17 17 16 15 15 14 13 13 14 13 11 12 13 11 10 10 9 7 7 7 6 3
25 18 14 13 15 8 12 14 21 19 17 16 16 15 20 16 18 12 9 11 15 16 16 17 18 16 15 14 13 13 16 17 15 15 16 12 10 9 10 9 9 9 9 8 7 5 4 2 2 2 -0 -3 -4 -6
17 17 12 8 12 11 5 6 9 12 10 12 11 15 14 14 8 7 5 10 12 11 13 15 13 13 11 12 12 12 13 11 10 8 11 13 11 9 7 6 5 5 6 2 0 -1 -2 -3 -5 -6 -4 -11 -5 -13
15 16 18 14 16 12 15 13 14 4 5 7 9 13 3 -1 -5 1 8 10 10 11 10 10 11 9 8 9 7 8 10 10 7 5 6 6 6 4 2 2 2 4 3 -4 -8 -10 -9 -12 -16 -15 -18 -14 -15 -21
16 13 16 20 20 16 8 6 10 4 1 2 4 -1 -6 -10 -7 8 13 13 11 10 9 8 8 7 7 7 8 8 7 7 6 5 4 4 3 4 0 -4 -4 1 3 -2 -8 -11 -12 -14 -17 -15 -18 -23 -25 -23
22 16 6 6 7 11 4 -1 0 2 7 14 1 -9 -12 -12 -1 9 12 14 11 9 7 6 4 3 3 3 4 3 4 2 0 -1 -1 -2 -2 -3 -5 -5 -5 2 -8 -11 -12 -12 -12 -12 -10 -12 -16 -16 -13 -16
12 10 10 2 3 6 7 2 3 9 10 7 -9 -6 -1 4 5 7 9 10 10 8 3 0 -1 -7 -4 -2 -4 -5 -5 -9 -12 -14 -18 -20 -18 -11 -12 -17 -18 -17 -19 -17 -8 -0 2 -2 -5 -10 -10 -12 -11 -13
7 9 4 -1 -1 2 -0 2 -5 -6 5 3 6 4 3 4 7 10 6 4 1 -8 -15 -16 -18 -14 -20 -17 -17 -11 -10 -19 -18 -16 -20 -20 -14 -11 -22 -24 -23 -23 -28 -29 -27 -20 -9 -20 -16 -21 -21 -19 -20 -19
5 4 5 3 4 1 -0 -7 -4 -6 -10 -8 -11 -11 -7 -2 -0 4 2 -2 -6 -13 -12 -15 -14 -22 -18 -20 -22 -22 -18 -16 -20 -19 -18 -18 -20 -22 -24 -24 -25 -29 -30 -29 -29 -30 -29 -28 -30 -30 -25 -21 -15 -12
-2 -8 -2 0 4 3 3 4 -10 -8 -11 -12 -10 -16 -14 -14 -15 -7 -3 -9 -14 -14 -16 -20 -19 -13 -17 -19 -23 -25 -17 -20 -20 -19 -18 -20 -22 -22 -23 -23 -28 -29 -29 -30 -30 -30 -29 -29 -32 -32 -30 -27 -24 -21
-9 -11 -10 -3 2 4 6 5 2 -2 -8 -9 -7 -9 -14 -14 -14 -8 -4 -13 -15 -17 -17 -20 -19 -17 -15 -18 -20 -22 -20 -24 -23 -9 -9 -11 -16 -16 -25 -28 -30 -30 -28 -30 -32 -32 -30 -29 -30 -30 -29 -30 -30 -28
Lifted_Index
3 2 2 2 2 3 4 5 6 6 6 6 6 7 7 7 6 6 5 4 5 5 4 4 4 4 5 5 5 4 3 2 2 2 2 1 0 -0 -0 0 0 0 -0 -0 0 0 1 0 0 1 1 2 2 3
4 4 3 3 4 4 5 5 6 6 6 6 7 7 7 7 6 5 4 4 4 5 4 4 3 4 4 4 4 4 3 2 2 2 2 1 1 0 0 0 0 0 -0 -0 -0 0 0 0 0 1 1 2 2 3
5 5 5 5 5 6 6 6 6 6 6 7 7 7 7 7 6 5 4 3 4 5 5 4 3 3 3 3 3 3 2 2 1 1 1 1 1 0 0 0 0 -0 -0 -0 -0 -0 -0 -0 -0 0 1 2 2 3
6 6 6 6 6 6 6 7 7 7 7 7 7 7 7 6 5 4 3 3 4 5 4 3 3 2 2 1 1 2 2 1 1 1 1 1 0 0 0 -0 -0 -0 -0 -0 -0 -0 -0 -0 0 1 2 2 2 3
6 6 6 6 6 6 7 7 7 7 7 7 7 7 6 6 4 3 3 3 4 4 4 3 2 1 1 0 -0 0 1 1 1 1 1 0 0 0 0 0 0 0 0 0 0 0 0 0 1 1 2 2 3 3
5 5 5 6 6 6 6 6 6 6 6 6 6 6 5 4 3 2 2 3 4 4 3 2 1 0 -0 -1 -1 -1 0 1 1 1 1 0 0 0 0 1 1 0 0 0 -0 0 0 0 1 2 2 2 3 3
4 5 5 5 5 5 5 5 5 5 5 5 5 4 3 2 2 1 2 3 4 4 3 2 1 0 -1 -1 -1 -1 -0 0 1 1 1 1 0 0 1 1 1 1 0 -0 -0 0 0 0 1 1 2 2 3 3
4 4 4 4 4 4 4 4 4 4 4 4 4 3 2 1 1 1 2 3 4 4 3 2 1 0 -0 -1 -1 -1 0 0 0 1 1 1 1 1 1 2 1 1 1 0 -0 -0 -0 -0 0 1 2 2 3 3
4 3 3 3 3 3 3 3 2 2 2 2 2 2 1 0 0 1 2 3 4 4 3 3 2 1 1 0 -0 -0 0 0 1 1 1 1 1 1 2 2 1 1 1 0 0 -0 -0 -0 -0 0 1 2 2 3
5 4 3 2 2 2 2 2 2 2 2 2 2 2 1 1 1 1 2 3 4 4 4 3 3 2 2 1 1 1 1 1 1 1 1 1 1 2 1 1 2 2 1 1 1 0 0 0 0 1 1 2 3 4
7 6 5 4 3 3 3 3 3 3 3 2 2 2 2 2 2 2 2 3 4 4 3 4 3 3 2 2 2 1 1 1 1 1 1 1 2 2 1 1 2 2 2 2 1 1 1 1 1 2 2 4 5 6
9 8 7 6 6 6 6 6 6 5 4 3 3 3 3 3 3 3 3 3 3 3 3 3 3 3 3 3 2 2 1 1 1 2 2 2 2 2 1 1 2 3 3 2 2 2 2 3 3 4 5 6 8 9
10 9 9 9 8 8 8 7 7 7 5 3 3 3 3 3 3 3 3 3 3 3 3 3 3 3 3 3 2 2 1 2 2 2 2 2 2 2 2 2 2 3 3 4 4 4 4 5 5 6 7 9 10 11
9 10 10 10 9 9 9 8 8 8 6 3 2 3 3 3 3 3 2 2 2 3 3 2 2 2 2 2 2 2 2 2 2 2 2 2 2 2 2 3 3 4 4 5 5 6 6 6 7 9 10 11 12 13
8 8 9 9 9 9 9 9 9 8 6 4 3 3 3 3 3 3 3 3 3 3 3 2 2 1 1 2 2 2 2 2 2 2 2 3 4 4 4 4 4 5 5 6 7 7 7 8 9 10 12 13 14 14
6 6 7 8 8 9 9 9 9 8 7 6 5 5 4 4 4 4 4 4 4 3 3 2 1 1 1 2 2 2 2 2 3 3 4 5 5 5 5 5 6 6 6 7 8 8 9 10 10 12 13 14 15 15
5 5 6 6 7 8 8 9 9 8 7 6 6 6 6 5 5 5 5 5 4 3 3 2 2 1 1 1 2 3 3 4 5 6 6 7 7 6 6 7 7 7 8 8 9 9 10 11 12 12 13 14 15 15
4 5 5 6 6 7 7 8 8 8 8 7 7 7 7 6 6 6 6 5 4 4 3 2 2 2 2 3 4 5 6 6 7 7 7 8 8 8 7 8 8 8 9 9 10 11 11 12 12 13 13 14 15 15
5 5 6 6 6 6 6 8 9 8 8 9 9 8 7 7 7 7 6 5 5 4 4 3 4 4 5 6 7 8 8 8 8 8 8 9 9 9 9 9 9 10 10 11 11 12 12 12 13 13 14 14 14 14
7 6 6 6 6 6 7 8 9 9 9 10 10 9 8 8 8 8 7 6 6 5 6 6 7 8 9 10 10 10 10 9 9 8 9 9 10 10 10 10 10 11 11 11 12 12 12 12 13 14 14 14 14 14
6 6 6 6 6 7 8 9 9 9 10 10 10 9 9 8 8 8 8 8 7 8 10 11 12 12 12 12 11 11 11 10 9 9 9 10 10 10 10 11 11 11 11 11 12 12 12 13 14 14 14 14 14 14
6 6 6 6 6 7 8 8 9 9 9 9 9 9 8 8 8 9 10 9 10 13 14 15 14 14 13 12 12 12 11 11 10 10 10 10 11 11 11 12 12 12 11 12 12 13 13 14 14 14 14 14 15 15
7 6 6 6 6 6 7 7 7 7 7 7 7 7 7 8 9 10 10 11 13 15 16 15 15 14 13 12 12 12 12 11 11 11 11 11 11 12 12 12 12 12 12 13 13 14 14 14 15 15 15 15 15 15
7 6 6 6 6 6 7 7 7 6 6 6 6 6 7 8 9 9 9 11 14 15 15 14 14 13 12 12 11 12 12 12 11 11 12 12 12 12 13 13 13 14 14 14 14 14 15 15 15 15 15 15 15 15
5 5 6 6 7 7 7 7 7 7 7 6 6 7 7 8 8 7 8 11 13 14 13 13 13 12 11 11 11 12 13 13 12 12 12 13 13 13 13 13 14 15 15 15 15 15 15 15 16 15 15 15 15 15
4 6 7 7 8 8 7 7 8 7 7 7 7 7 7 7 6 7 9 12 13 13 13 13 12 12 11 11 12 12 13 14 13 13 13 14 14 14 14 13 14 15 16 17 16 16 16 16 16 16 16 17 17 17
6 7 8 8 8 8 7 7 7 7 7 7 6 6 6 5 5 8 11 13 14 14 14 14 13 13 12 13 13 14 15 15 15 15 15 16 16 16 15 15 15 16 18 18 18 17 17 17 17 17 17 18 18 18
7 7 8 8 8 7 7 7 7 7 6 6 5 5 4 5 6 10 12 14 15 15 14 14 14 14 14 14 15 15 16 16 15 15 15 16 16 17 17 18 18 19 19 19 19 19 19 19 19 19 19 18 19 19
8 8 8 7 7 7 7 7 7 7 7 6 5 5 6 8 10 13 14 14 15 14 14 14 14 14 15 15 15 15 16 16 15 15 14 15 15 17 18 19 19 20 20 20 20 20 20 20 20 20 20 19 19 19
8 8 7 7 7 7 7 8 8 8 8 7 7 7 7 10 13 15 15 15 14 14 13 13 14 14 14 14 14 15 15 16 16 15 15 15 16 17 19 19 20 20 20 20 20 20 21 21 20 20 20 19 19 19
8 7 7 6 6 7 8 8 8 8 8 8 8 8 8 9 12 14 14 14 13 13 13 13 13 14 14 14 14 15 16 17 17 17 17 17 18 19 19 20 20 20 20 20 20 20 20 20 20 20 19 19 19 19
7 6 6 6 6 7 8 8 8 7 7 7 7 7 8 8 9 12 14 14 13 13 13 13 14 14 15 16 16 17 17 18 18 19 19 19 19 20 20 20 20 20 20 20 20 20 20 20 20 20 19 19 18 18
6 6 6 6 6 7 8 7 7 6 6 6 7 7 7 7 8 10 14 15 13 13 13 14 15 15 16 17 17 18 18 19 19 19 19 20 20 20 20 20 20 20 20 20 20 20 20 20 20 20 19 19 18 18